Total_Precipitation_Accumulation
0.00 0.00 0.00 0.00 0.01 0.01 0.00 0.01 0.00 0.00 0.00 0.00 0.00 0.00 0.00 0.00 0.00 0.00 0.01 0.02 0.04 0.08 0.16 0.36 0.50 0.76 0.58 0.42 0.30 0.21 0.23 0.31 0.32 0.27 0.26 0.34 0.49 0.42 0.27 0.18 0.08 0.02 0.00
0.00 0.00 0.00 0.00 0.00 0.00 0.01 0.01 0.02 0.01 0.02 0.01 0.00 0.01 0.01 0.02 0.04 0.04 0.04 0.05 0.06 0.10 0.14 0.26 0.38 0.63 0.71 0.57 0.38 0.27 0.24 0.27 0.27 0.30 0.48 0.57 0.56 0.41 0.27 0.13 0.03 0.01 0.00
0.00 0.00 0.00 0.00 0.00 0.00 0.00 0.01 0.01 0.00 0.00 0.00 0.00 0.00 0.02 0.06 0.13 0.14 0.15 0.14 0.12 0.12 0.13 0.22 0.32 0.41 0.63 0.58 0.45 0.40 0.36 0.38 0.24 0.28 0.51 0.57 0.51 0.37 0.24 0.11 0.04 0.01 0.00
0.00 0.00 0.00 0.00 0.00 0.00 0.00 0.00 0.01 0.00 0.00 0.00 0.00 0.00 0.03 0.11 0.15 0.12 0.14 0.12 0.10 0.14 0.14 0.19 0.27 0.31 0.38 0.54 0.44 0.41 0.41 0.42 0.40 0.47 0.59 0.59 0.40 0.26 0.09 0.05 0.02 0.01 0.01
0.00 0.00 0.00 0.00 0.00 0.00 0.00 0.00 0.01 0.02 0.01 0.01 0.03 0.04 0.06 0.08 0.17 0.09 0.07 0.10 0.06 0.05 0.11 0.14 0.18 0.24 0.32 0.44 0.40 0.33 0.33 0.39 0.47 0.48 0.50 0.47 0.33 0.17 0.08 0.03 0.01 0.01 0.01
0.00 0.00 0.00 0.00 0.00 0.00 0.00 0.01 0.02 0.03 0.04 0.04 0.05 0.07 0.07 0.07 0.13 0.14 0.08 0.04 0.01 0.02 0.04 0.07 0.12 0.17 0.16 0.28 0.43 0.33 0.25 0.31 0.38 0.29 0.19 0.13 0.06 0.01 0.01 0.00 0.00 0.00 0.01
0.00 0.00 0.00 0.00 0.00 0.00 0.00 0.00 0.02 0.05 0.04 0.02 0.03 0.04 0.05 0.07 0.11 0.08 0.07 0.02 0.01 0.02 0.03 0.05 0.08 0.14 0.12 0.12 0.21 0.24 0.17 0.30 0.41 0.31 0.17 0.08 0.03 0.01 0.00 0.00 0.00 0.00 0.00
0.01 0.01 0.01 0.00 0.00 0.00 0.01 0.02 0.02 0.01 0.01 0.02 0.02 0.03 0.03 0.06 0.12 0.12 0.14 0.07 0.05 0.06 0.07 0.07 0.03 0.05 0.07 0.11 0.14 0.12 0.11 0.18 0.24 0.29 0.26 0.09 0.02 0.00 0.00 0.00 0.00 0.00 0.00
0.00 0.01 0.00 0.00 0.00 0.00 0.00 0.00 0.00 0.00 0.00 0.00 0.01 0.01 0.01 0.02 0.06 0.09 0.15 0.09 0.06 0.05 0.04 0.03 0.01 0.01 0.04 0.08 0.08 0.10 0.11 0.13 0.20 0.24 0.26 0.17 0.07 0.00 0.00 0.00 0.00 0.00 0.00
0.00 0.01 0.00 0.00 0.00 0.00 0.00 0.00 0.00 0.01 0.02 0.03 0.03 0.02 0.03 0.02 0.10 0.11 0.18 0.18 0.15 0.06 0.03 0.03 0.01 0.00 0.02 0.05 0.05 0.03 0.04 0.06 0.08 0.14 0.16 0.12 0.07 0.02 0.00 0.00 0.00 0.00 0.00
0.00 0.00 0.00 0.00 0.00 0.01 0.01 0.00 0.01 0.03 0.02 0.01 0.00 0.01 0.02 0.07 0.16 0.21 0.22 0.21 0.18 0.11 0.08 0.04 0.00 0.00 0.01 0.03 0.06 0.07 0.07 0.08 0.09 0.09 0.12 0.12 0.06 0.04 0.01 0.00 0.00 0.00 0.00
0.01 0.01 0.02 0.03 0.02 0.01 0.02 0.02 0.03 0.03 0.03 0.06 0.05 0.05 0.07 0.12 0.20 0.16 0.12 0.15 0.19 0.14 0.11 0.08 0.03 0.00 0.00 0.02 0.02 0.03 0.05 0.08 0.06 0.09 0.11 0.12 0.03 0.01 0.00 0.00 0.00 0.00 0.00
0.06 0.05 0.02 0.01 0.01 0.00 0.01 0.01 0.01 0.00 0.02 0.04 0.04 0.06 0.10 0.15 0.16 0.16 0.13 0.15 0.20 0.20 0.15 0.17 0.19 0.07 0.01 0.00 0.01 0.00 0.01 0.01 0.03 0.05 0.07 0.06 0.02 0.00 0.00 0.00 0.00 0.00 0.00
0.04 0.03 0.00 0.00 0.00 0.00 0.00 0.00 0.01 0.01 0.02 0.01 0.02 0.01 0.03 0.04 0.06 0.09 0.15 0.22 0.21 0.21 0.25 0.23 0.23 0.10 0.04 0.02 0.03 0.01 0.00 0.00 0.01 0.00 0.02 0.05 0.05 0.02 0.00 0.00 0.00 0.00 0.00
0.04 0.02 0.00 0.00 0.00 0.00 0.01 0.00 0.01 0.03 0.04 0.02 0.01 0.01 0.02 0.02 0.02 0.04 0.08 0.15 0.24 0.25 0.23 0.17 0.16 0.11 0.07 0.04 0.03 0.01 0.01 0.00 0.01 0.00 0.02 0.06 0.03 0.02 0.01 0.00 0.00 0.00 0.00
0.03 0.01 0.01 0.00 0.00 0.00 0.00 0.01 0.01 0.01 0.03 0.04 0.03 0.04 0.02 0.02 0.02 0.02 0.03 0.09 0.14 0.18 0.18 0.11 0.09 0.08 0.08 0.10 0.09 0.05 0.02 0.00 0.00 0.00 0.01 0.02 0.02 0.00 0.02 0.01 0.00 0.00 0.00
0.11 0.03 0.03 0.05 0.04 0.02 0.01 0.00 0.00 0.00 0.01 0.01 0.03 0.04 0.06 0.07 0.04 0.02 0.03 0.04 0.07 0.08 0.07 0.11 0.12 0.13 0.15 0.15 0.12 0.07 0.03 0.00 0.00 0.00 0.00 0.01 0.03 0.03 0.03 0.02 0.00 0.00 0.00
0.37 0.17 0.07 0.04 0.02 0.01 0.01 0.00 0.00 0.00 0.00 0.01 0.00 0.02 0.04 0.08 0.10 0.07 0.08 0.10 0.12 0.09 0.04 0.07 0.10 0.11 0.11 0.10 0.08 0.04 0.01 0.00 0.00 0.00 0.00 0.00 0.00 0.02 0.03 0.02 0.02 0.01 0.00
0.20 0.27 0.15 0.12 0.12 0.09 0.07 0.07 0.04 0.01 0.00 0.01 0.01 0.01 0.02 0.05 0.11 0.14 0.12 0.08 0.06 0.06 0.08 0.09 0.08 0.08 0.08 0.06 0.05 0.02 0.00 0.00 0.00 0.00 0.00 0.00 0.00 0.00 0.01 0.00 0.01 0.01 0.01
0.03 0.09 0.13 0.15 0.16 0.14 0.08 0.05 0.03 0.00 0.00 0.01 0.01 0.02 0.05 0.05 0.05 0.07 0.08 0.08 0.10 0.09 0.10 0.10 0.09 0.06 0.03 0.02 0.02 0.02 0.01 0.00 0.00 0.00 0.00 0.00 0.00 0.00 0.00 0.00 0.00 0.00 0.00
0.04 0.07 0.10 0.05 0.05 0.06 0.06 0.04 0.03 0.02 0.00 0.00 0.01 0.03 0.07 0.06 0.04 0.04 0.04 0.05 0.06 0.08 0.08 0.09 0.09 0.08 0.05 0.02 0.01 0.00 0.00 0.00 0.00 0.00 0.00 0.00 0.00 0.00 0.00 0.00 0.00 0.00 0.00
0.04 0.05 0.07 0.06 0.06 0.05 0.04 0.02 0.01 0.01 0.01 0.01 0.01 0.04 0.08 0.08 0.06 0.08 0.08 0.07 0.07 0.08 0.07 0.06 0.05 0.05 0.04 0.03 0.02 0.02 0.02 0.03 0.01 0.00 0.00 0.00 0.00 0.00 0.00 0.00 0.00 0.00 0.00
0.00 0.01 0.02 0.02 0.02 0.03 0.03 0.01 0.01 0.00 0.01 0.02 0.02 0.03 0.05 0.05 0.06 0.08 0.09 0.09 0.11 0.10 0.07 0.04 0.02 0.03 0.04 0.05 0.04 0.03 0.02 0.02 0.02 0.02 0.01 0.01 0.00 0.00 0.00 0.00 0.00 0.01 0.01
0.01 0.03 0.04 0.03 0.04 0.03 0.02 0.01 0.01 0.02 0.02 0.03 0.03 0.04 0.05 0.07 0.07 0.07 0.07 0.08 0.11 0.12 0.11 0.08 0.03 0.03 0.04 0.05 0.04 0.04 0.03 0.03 0.03 0.02 0.01 0.02 0.02 0.01 0.02 0.02 0.01 0.01 0.01
0.01 0.02 0.03 0.03 0.03 0.04 0.03 0.03 0.01 0.02 0.02 0.02 0.02 0.03 0.04 0.07 0.08 0.10 0.10 0.12 0.15 0.18 0.20 0.17 0.14 0.15 0.15 0.13 0.11 0.09 0.09 0.09 0.08 0.06 0.05 0.05 0.04 0.03 0.04 0.04 0.03 0.04 0.04
0.01 0.02 0.03 0.03 0.03 0.03 0.03 0.02 0.02 0.02 0.02 0.02 0.02 0.03 0.04 0.06 0.07 0.09 0.10 0.11 0.13 0.16 0.17 0.18 0.19 0.18 0.16 0.15 0.14 0.12 0.12 0.12 0.11 0.09 0.08 0.09 0.09 0.08 0.08 0.07 0.05 0.06 0.05